www.pogodaiklimat.ru

Погода и климат >> Архив погоды >> Мексика >> Piedras Negras


ПОГОДА в Piedras Negras

  • Прогноз погоды в Piedras Negras
  • Монитор погоды в Piedras Negras
  • Климат города

АРХИВ ПОГОДЫ в Piedras Negras

Время (UTC), дата Ветер
(напр.,м/с)
 
Видим.   Явления Облачность Т
(С)
Тd
(С)
f
(%)
Тe
(С)
Тes
(С)
Комфортность P
(гПа)
Po
(гПа)
Тmin
(С)
Tmax
(С)
R
(мм)
R24
(мм)
S
(см)
00 18.05 В 1 24 км ясно +37.0 +20.9 39 +44 +46 опасность
перегрева
1003.8 976.4 +25.4 +38.0
03 18.05 В 1 24 км ясно +37.0 +20.9 39 +44 +44 опасность
перегрева
1003.8 976.4 +25.4 +38.0
06 18.05 В 1 20 км ясно +31.4 +20.3 52 +38 +38 очень
душно
1003.4 976.2
12 18.05 ЮВ 1 21 км 10/10 400 м
[Sc diur, vesp]
+25.6 +22.6 84 +34 +34 очень
душно
1005.6 977.7 +24.8 +38.0
15 18.05 ЮВ 1 22 км 10/10 420 м
[Sc diur, vesp]
+27.0 +22.4 76 +35 +35 очень
душно
1006.6 978.6
18 18.05 Ю 1 23 км 10/10 480 м
[Sc diur, vesp]
+29.0 +23.1 71 +39 +39 очень
душно
1006.6 978.6 +24.8 +29.6
21 18.05 В 1 23 км 10/10 480 м
[Sc diur, vesp]
+37.0 +22.2 43 +46 +46 опасность
перегрева
1003.3 975.5
00 19.05 ЮВ 1 24 км ясно +38.6 +22.9 41 +48 +51 опасность
перегрева
1001.8 974.3 +24.8 +39.0
03 19.05 ЮВ 2 20 км ясно +33.4 +25.6 64 +48 +48 опасность
перегрева
1000.4 973.1
06 19.05 ЮВ 2 20 км ясно +30.0 +25.3 76 +44 +44 опасность
перегрева
1002.3 975.1 +24.8 +39.0
12 19.05 ЮВ 2 21 км 10/10 420 м
[Sc diur, vesp]
+26.8 +22.7 78 +35 +35 очень
душно
1003.9 976.3 +25.8 +39.0
15 19.05 ЮВ 1 22 км 10/10 420 м
[Sc diur, vesp]
+27.6 +22.7 75 +37 +37 очень
душно
1005.5 977.6
18 19.05 ЮВ 1 23 км 10/10 500 м
[Sc diur, vesp]
+31.6 +23.3 61 +42 +42 опасность
перегрева
1005.6 977.7 +25.8 +32.4
21 19.05 В 1 23 км 10/10 500 м
[Sc diur, vesp]
+35.0 +23.0 50 +45 +45 опасность
перегрева
1003.2 975.5
00 20.05 СВ 1 23 км 6/6 300 м
[Sc diur, vesp]
+34.8 +21.8 47 +43 +44 опасность
перегрева
1001.4 973.9 +25.8 +35.5
12 20.05 СВ 1 20 км 10/10 420 м
[Sc diur, vesp]
+25.0 +23.1 89 +33 +33 очень
душно
1009.1 978.5 +24.0 +35.5
15 20.05 В 2 20 км 10/10 300 м
[St]
+25.2 +23.0 88 +34 +34 очень
душно
1008.7 980.5
18 20.05 СВ 2 20 км {морось} 10/10 200 м
[Frnb]
+24.2 +22.8 92 +32 +32 очень
душно
1010.0 981.7 0.0
21 20.05 СВ 1 22 км слабая морось 10/10 300 м
[Frnb]
+24.6 +22.4 88 +32 +32 очень
душно
1010.8 982.4 1
00 21.05 СВ 1 22 км 10/10 300 м
[Frnb]
+24.0 +21.2 84 +30 +30 очень
душно
1009.1 980.8 +23.0 +25.5
12 21.05 В 1 21 км 10/10 270 м
[St]
+24.0 +21.8 88 +31 +31 очень
душно
1014.6 986.1 +22.6 +25.5
15 21.05 В 2 22 км 10/10 270 м
[St]
+24.8 +21.8 83 +32 +32 очень
душно
1015.7 987.2
18 21.05 В 1 22 км 10/10 240 м
[Frnb]
+24.6 +22.1 86 +32 +32 очень
душно
1014.7 986.1 +22.6 +25.8
21 21.05 С 2 20 км слабая морось {дождь} 10/10 240 м
[Frnb]
+22.6 +22.3 98 +30 +30 очень
душно
1012.7 984.2 2
00 22.05 С 1 18 км {дождь} 10/10 200 м
[Frnb]
+21.2 +20.9 98 +27 +27 душно 1013.7 985.1 19
12 22.05 С 1 21 км слабый дождь 10/10 200 м
[Frnb]
+19.8 +18.9 95 +24 +24 комфорт 1015.6 986.7 2
15 22.05 СВ 1 22 км 10/10 240 м
[Frnb]
+20.4 +19.2 93 +25 +25 комфорт 1015.4 986.4
18 22.05 СВ 1 22 км 10/10 270 м
[St]
+23.2 +20.1 83 +30 +30 очень
душно
1014.8 985.9 +18.6 +23.8
21 22.05 С 1 22 км 10/10 270 м
[St]
+25.0 +22.0 83 +32 +32 очень
душно
1012.5 983.8
00 23.05 С 1 22 км 10/10 300 м
[Frnb]
+26.6 +22.5 78 +35 +35 очень
душно
1009.7 981.3 +18.6 +27.5
03 23.05 З 1 20 км 10/10 300 м
[Frnb]
+24.6 +23.0 91 +33 +33 очень
душно
1010.4 982.1
06 23.05 С 1 20 км 10/10 300 м
[Frnb]
+23.6 +22.2 92 +31 +31 очень
душно
1011.5 983.1 +18.6 +27.5
12 23.05 Ю 1 21 км 10/10 330 м
[Sc diur, vesp]
+21.8 +19.8 88 +27 +27 душно 1010.8 982.3 +20.6 +27.5
15 23.05 СВ 1 22 км 10/10 360 м
[Sc diur, vesp]
+22.6 +20.0 85 +29 +29 очень
душно
1012.1 983.5
18 23.05 СВ 1 22 км 10/10 400 м
[Sc diur, vesp]
+23.6 +19.9 80 +29 +29 душно 1012.7 984.1 +20.6 +24.2
21 23.05 С 1 22 км 10/10 400 м
[Sc diur, vesp]
+28.6 +23.2 73 +39 +39 очень
душно
1016.4 987.8
00 24.05 СЗ 3 23 км 8/8 300 м
[Sc diur, vesp]
+24.8 +22.6 88 +33 +33 очень
душно
1011.1 982.7 +20.9 +29.5
03 24.05 С 2 20 км ясно +22.8 +17.8 73 +28 +28 душно 1013.1 984.7
06 24.05 С 1 20 км ясно +19.4 +16.4 83 +22 +22 комфорт 1015.2 986.7 +19.0 +29.5
12 24.05 ЮЗ 1 24 км ясно +15.0 +14.0 94 +15 +15 1015.2 985.5 +14.0 +29.5
15 24.05 СЗ 1 24 км ясно +21.0 +13.8 63 +25 +35 комфорт 1015.5 986.1
18 24.05 Ю 1 24 км ясно +28.2 +15.0 45 +31 +56 опасность
солнечного
удара
1014.2 985.3 +14.0 +29.0

 

Местоположение метеостанции Piedras Negras (Мексика): широта 28.70 долгота -100.50 высота над уровнем моря 250 м.

В архиве по умолчанию представлена погода в Piedras Negras за последнюю неделю. Архивные данные за месяц целиком и за предыдущие месяцы, начиная с января 2011 года, Вы можете получить, выбрав интересующий диапазон дат из раскрывающегося списка и нажав кнопку "Ввод!".

Внимание! Время в таблицах - всемирное. Для получения местного времени необходимо прибавить поправку, которая в Piedras Negras равна -7 ч.

Смотрите также архив погоды в соседних городах и на ближайших метеорологических станциях:

Погода в Monclova (Мексика) (221 км)
Погода в Monterrey (Мексика) (331 км)
Погода в Saltillo (Мексика) (374 км)
Погода в Torreon (Мексика) (455 км)
Погода в Chihuahua University (Мексика) (537 км)
Погода в Hidalgo del Parral (Мексика) (539 км)
Погода в Chihuahua (Мексика) (544 км)
Погода в Ciudad Victoria (Мексика) (569 км)
Погода в Soto La Marina (Мексика) (594 км)
Погода в Tepehuanes (Мексика) (638 км)

Пояснения к столбцам:

Ветер - указаны скорость ветра в м/с - средняя за 10 мин, порывы в срок и между сроками (в фигурных скобках) и направление, откуда дует ветер: С - северный, СВ - северо-восточный, В - восточный, ЮВ - юго-восточный, Ю - южный, ЮЗ - юго-западный, З - западный, СЗ - северо-западный.
Видимость - горизонтальная дальность видимости в метрах или километрах. При видимости от 1 до 10 км при отсутствии осадков обычно наблюдается дымка, при ухудшении видимости до 1 км и менее - туман. В сухую погоду видимость может ухудшаться дымом, пылью или мглою.
Явления - указаны атмосферные явления, наблюдавшиеся в срок или в последний час перед сроком; фигурными скобками обозначены явления, наблюдавшиеся между сроками (за 1-3 часа до срока); квадратными скобками обозначены град или гололедные отложения с указанием их диаметра в мм.
Облачность - указаны через наклонную черту общая и нижняя облачность в баллах и высота нижней границы облаков в метрах; квадратными скобками обозначены формы облаков: Ci - перистые, Cs - перисто-слоистые, Cc - перисто-кучевые, Ac - высококучевые, As - высокослоистые, Sc - слоисто-кучевые, Ns - слоисто-дождевые, Cu - кучевые, Cb - кучево-дождевые. Подробнее классификацию облаков см. в Атласе облаков (PDF).
T - Температура воздуха - температура, измеренная на высоте 2 м над землей.
Td - Температура точки росы - температура, при понижении до которой содержащийся в воздухе водяной пар достигнет насыщения.
f - Относительная влажность воздуха - влажноcть воздуха, измеренная на высоте 2 м над землей.
Te - Эффективная температура - температура, которую ощущает одетый по сезону человек в тени. Характеристика душности погоды. При расчете учитывается влияние влажности воздуха и скорости ветра на теплоощущения человека.
Tes - Эффективная температура на солнце - температура, которую ощущает человек, с поправкой на солнечный нагрев. Характеристика знойности погоды. Зависит от высоты солнца над горизонтом, облачности и скорости ветра. Ночью, в пасмурную погоду, а также при ветре 12 м/с и более поправка равна нулю.
P - Атмосферное давление - приведенное к уровню моря атмосферное давление.
Po - Атмосферное давление - измеренное на уровне метеостанции атмосферное давление.
Tmin - Минимальная температура - минимум температуры воздуха на высоте 2 м над землей.
Tmax - Максимальная температура - максимум температуры воздуха на высоте 2 м над землей.
R - Количество осадков - Количество выпавших осадков за период времени, мм. При наведении курсора мыши на число - период времени, за который выпало указанное количество осадков.
R24 - Количество осадков - Количество выпавших осадков за 24 часа, мм.
S - Снежный покров - Высота снежного покрова, см. При наведении курсора мыши на число - состояние снежного покрова и степень покрытия местности в баллах.